Index of /20260509/WXO-DD/model_caps/3km/12/000
Name Last modified Size Description
Parent Directory -
20260509T12Z_MSC_CAPS_AbsoluteVorticity_IsbL-0250_RLatLon0.03_PT000H.grib2 2026-05-09 18:02 1.1M
20260509T12Z_MSC_CAPS_AbsoluteVorticity_IsbL-0500_RLatLon0.03_PT000H.grib2 2026-05-09 18:02 1.1M
20260509T12Z_MSC_CAPS_AbsoluteVorticity_IsbL-0700_RLatLon0.03_PT000H.grib2 2026-05-09 18:02 1.0M
20260509T12Z_MSC_CAPS_AbsoluteVorticity_IsbL-0850_RLatLon0.03_PT000H.grib2 2026-05-09 18:02 1.1M
20260509T12Z_MSC_CAPS_AbsoluteVorticity_IsbL-1000_RLatLon0.03_PT000H.grib2 2026-05-09 18:02 1.7M
20260509T12Z_MSC_CAPS_AirDensity_AGL-120m_RLatLon0.03_PT000H.grib2 2026-05-09 18:02 1.1M
20260509T12Z_MSC_CAPS_AirDensity_AGL-40m_RLatLon0.03_PT000H.grib2 2026-05-09 18:02 1.1M
20260509T12Z_MSC_CAPS_AirDensity_AGL-80m_RLatLon0.03_PT000H.grib2 2026-05-09 18:02 1.1M
20260509T12Z_MSC_CAPS_AirTemp_AGL-120m_RLatLon0.03_PT000H.grib2 2026-05-09 18:02 1.4M
20260509T12Z_MSC_CAPS_AirTemp_AGL-2m_RLatLon0.03_PT000H.grib2 2026-05-09 18:02 1.2M
20260509T12Z_MSC_CAPS_AirTemp_AGL-40m_RLatLon0.03_PT000H.grib2 2026-05-09 18:02 1.4M
20260509T12Z_MSC_CAPS_AirTemp_AGL-80m_RLatLon0.03_PT000H.grib2 2026-05-09 18:02 1.3M
20260509T12Z_MSC_CAPS_AirTemp_IsbL-0050_RLatLon0.03_PT000H.grib2 2026-05-09 18:02 674K
20260509T12Z_MSC_CAPS_AirTemp_IsbL-0100_RLatLon0.03_PT000H.grib2 2026-05-09 18:02 734K
20260509T12Z_MSC_CAPS_AirTemp_IsbL-0150_RLatLon0.03_PT000H.grib2 2026-05-09 18:02 703K
20260509T12Z_MSC_CAPS_AirTemp_IsbL-0175_RLatLon0.03_PT000H.grib2 2026-05-09 18:02 724K
20260509T12Z_MSC_CAPS_AirTemp_IsbL-0200_RLatLon0.03_PT000H.grib2 2026-05-09 18:02 744K
20260509T12Z_MSC_CAPS_AirTemp_IsbL-0225_RLatLon0.03_PT000H.grib2 2026-05-09 18:02 754K
20260509T12Z_MSC_CAPS_AirTemp_IsbL-0250_RLatLon0.03_PT000H.grib2 2026-05-09 18:02 747K
20260509T12Z_MSC_CAPS_AirTemp_IsbL-0275_RLatLon0.03_PT000H.grib2 2026-05-09 18:02 1.0M
20260509T12Z_MSC_CAPS_AirTemp_IsbL-0300_RLatLon0.03_PT000H.grib2 2026-05-09 18:02 968K
20260509T12Z_MSC_CAPS_AirTemp_IsbL-0350_RLatLon0.03_PT000H.grib2 2026-05-09 18:02 728K
20260509T12Z_MSC_CAPS_AirTemp_IsbL-0400_RLatLon0.03_PT000H.grib2 2026-05-09 18:02 729K
20260509T12Z_MSC_CAPS_AirTemp_IsbL-0450_RLatLon0.03_PT000H.grib2 2026-05-09 18:02 734K
20260509T12Z_MSC_CAPS_AirTemp_IsbL-0500_RLatLon0.03_PT000H.grib2 2026-05-09 18:02 738K
20260509T12Z_MSC_CAPS_AirTemp_IsbL-0550_RLatLon0.03_PT000H.grib2 2026-05-09 18:02 745K
20260509T12Z_MSC_CAPS_AirTemp_IsbL-0600_RLatLon0.03_PT000H.grib2 2026-05-09 18:02 754K
20260509T12Z_MSC_CAPS_AirTemp_IsbL-0650_RLatLon0.03_PT000H.grib2 2026-05-09 18:02 770K
20260509T12Z_MSC_CAPS_AirTemp_IsbL-0700_RLatLon0.03_PT000H.grib2 2026-05-09 18:02 789K
20260509T12Z_MSC_CAPS_AirTemp_IsbL-0750_RLatLon0.03_PT000H.grib2 2026-05-09 18:02 814K
20260509T12Z_MSC_CAPS_AirTemp_IsbL-0800_RLatLon0.03_PT000H.grib2 2026-05-09 18:02 838K
20260509T12Z_MSC_CAPS_AirTemp_IsbL-0850_RLatLon0.03_PT000H.grib2 2026-05-09 18:02 879K
20260509T12Z_MSC_CAPS_AirTemp_IsbL-0875_RLatLon0.03_PT000H.grib2 2026-05-09 18:02 904K
20260509T12Z_MSC_CAPS_AirTemp_IsbL-0900_RLatLon0.03_PT000H.grib2 2026-05-09 18:02 1.0M
20260509T12Z_MSC_CAPS_AirTemp_IsbL-0925_RLatLon0.03_PT000H.grib2 2026-05-09 18:02 1.1M
20260509T12Z_MSC_CAPS_AirTemp_IsbL-0950_RLatLon0.03_PT000H.grib2 2026-05-09 18:02 1.1M
20260509T12Z_MSC_CAPS_AirTemp_IsbL-0970_RLatLon0.03_PT000H.grib2 2026-05-09 18:02 1.0M
20260509T12Z_MSC_CAPS_AirTemp_IsbL-0985_RLatLon0.03_PT000H.grib2 2026-05-09 18:02 1.0M
20260509T12Z_MSC_CAPS_AirTemp_IsbL-1000_RLatLon0.03_PT000H.grib2 2026-05-09 18:02 1.0M
20260509T12Z_MSC_CAPS_AirTemp_IsbL-1015_RLatLon0.03_PT000H.grib2 2026-05-09 18:02 1.0M
20260509T12Z_MSC_CAPS_Albedo_Sfc_RLatLon0.03_PT000H.grib2 2026-05-09 18:02 2.7M
20260509T12Z_MSC_CAPS_CAPE_Sfc_RLatLon0.03_PT000H.grib2 2026-05-09 18:02 110K
20260509T12Z_MSC_CAPS_CloudWater_EAtm_RLatLon0.03_PT000H.grib2 2026-05-09 18:02 1.2M
20260509T12Z_MSC_CAPS_DewPointDepression_AGL-120m_RLatLon0.03_PT000H.grib2 2026-05-09 18:02 1.3M
20260509T12Z_MSC_CAPS_DewPointDepression_AGL-2m_RLatLon0.03_PT000H.grib2 2026-05-09 18:02 1.2M
20260509T12Z_MSC_CAPS_DewPointDepression_AGL-40m_RLatLon0.03_PT000H.grib2 2026-05-09 18:02 1.4M
20260509T12Z_MSC_CAPS_DewPointDepression_AGL-80m_RLatLon0.03_PT000H.grib2 2026-05-09 18:02 1.4M
20260509T12Z_MSC_CAPS_DewPointDepression_IsbL-0050_RLatLon0.03_PT000H.grib2 2026-05-09 18:02 2.7K
20260509T12Z_MSC_CAPS_DewPointDepression_IsbL-0100_RLatLon0.03_PT000H.grib2 2026-05-09 18:02 58K
20260509T12Z_MSC_CAPS_DewPointDepression_IsbL-0150_RLatLon0.03_PT000H.grib2 2026-05-09 18:02 71K
20260509T12Z_MSC_CAPS_DewPointDepression_IsbL-0175_RLatLon0.03_PT000H.grib2 2026-05-09 18:02 159K
20260509T12Z_MSC_CAPS_DewPointDepression_IsbL-0200_RLatLon0.03_PT000H.grib2 2026-05-09 18:02 343K
20260509T12Z_MSC_CAPS_DewPointDepression_IsbL-0225_RLatLon0.03_PT000H.grib2 2026-05-09 18:02 537K
20260509T12Z_MSC_CAPS_DewPointDepression_IsbL-0250_RLatLon0.03_PT000H.grib2 2026-05-09 18:02 741K
20260509T12Z_MSC_CAPS_DewPointDepression_IsbL-0275_RLatLon0.03_PT000H.grib2 2026-05-09 18:02 863K
20260509T12Z_MSC_CAPS_DewPointDepression_IsbL-0300_RLatLon0.03_PT000H.grib2 2026-05-09 18:02 886K
20260509T12Z_MSC_CAPS_DewPointDepression_IsbL-0350_RLatLon0.03_PT000H.grib2 2026-05-09 18:02 910K
20260509T12Z_MSC_CAPS_DewPointDepression_IsbL-0400_RLatLon0.03_PT000H.grib2 2026-05-09 18:02 940K
20260509T12Z_MSC_CAPS_DewPointDepression_IsbL-0450_RLatLon0.03_PT000H.grib2 2026-05-09 18:02 956K
20260509T12Z_MSC_CAPS_DewPointDepression_IsbL-0500_RLatLon0.03_PT000H.grib2 2026-05-09 18:02 969K
20260509T12Z_MSC_CAPS_DewPointDepression_IsbL-0550_RLatLon0.03_PT000H.grib2 2026-05-09 18:02 973K
20260509T12Z_MSC_CAPS_DewPointDepression_IsbL-0600_RLatLon0.03_PT000H.grib2 2026-05-09 18:02 1.0M
20260509T12Z_MSC_CAPS_DewPointDepression_IsbL-0650_RLatLon0.03_PT000H.grib2 2026-05-09 18:02 1.0M
20260509T12Z_MSC_CAPS_DewPointDepression_IsbL-0700_RLatLon0.03_PT000H.grib2 2026-05-09 18:02 1.0M
20260509T12Z_MSC_CAPS_DewPointDepression_IsbL-0750_RLatLon0.03_PT000H.grib2 2026-05-09 18:02 1.0M
20260509T12Z_MSC_CAPS_DewPointDepression_IsbL-0800_RLatLon0.03_PT000H.grib2 2026-05-09 18:02 1.1M
20260509T12Z_MSC_CAPS_DewPointDepression_IsbL-0850_RLatLon0.03_PT000H.grib2 2026-05-09 18:02 1.1M
20260509T12Z_MSC_CAPS_DewPointDepression_IsbL-0875_RLatLon0.03_PT000H.grib2 2026-05-09 18:02 1.1M
20260509T12Z_MSC_CAPS_DewPointDepression_IsbL-0900_RLatLon0.03_PT000H.grib2 2026-05-09 18:02 1.1M
20260509T12Z_MSC_CAPS_DewPointDepression_IsbL-0925_RLatLon0.03_PT000H.grib2 2026-05-09 18:02 1.1M
20260509T12Z_MSC_CAPS_DewPointDepression_IsbL-0950_RLatLon0.03_PT000H.grib2 2026-05-09 18:02 1.1M
20260509T12Z_MSC_CAPS_DewPointDepression_IsbL-0970_RLatLon0.03_PT000H.grib2 2026-05-09 18:02 1.1M
20260509T12Z_MSC_CAPS_DewPointDepression_IsbL-0985_RLatLon0.03_PT000H.grib2 2026-05-09 18:02 1.1M
20260509T12Z_MSC_CAPS_DewPointDepression_IsbL-1000_RLatLon0.03_PT000H.grib2 2026-05-09 18:02 1.1M
20260509T12Z_MSC_CAPS_DewPointDepression_IsbL-1015_RLatLon0.03_PT000H.grib2 2026-05-09 18:02 1.1M
20260509T12Z_MSC_CAPS_DewPoint_AGL-120m_RLatLon0.03_PT000H.grib2 2026-05-09 18:02 3.0M
20260509T12Z_MSC_CAPS_DewPoint_AGL-2m_RLatLon0.03_PT000H.grib2 2026-05-09 18:02 1.3M
20260509T12Z_MSC_CAPS_DewPoint_AGL-40m_RLatLon0.03_PT000H.grib2 2026-05-09 18:02 3.1M
20260509T12Z_MSC_CAPS_DewPoint_AGL-80m_RLatLon0.03_PT000H.grib2 2026-05-09 18:02 3.0M
20260509T12Z_MSC_CAPS_DownwardLongwaveRadiationFlux-Accum_Sfc_RLatLon0.03_PT000H.grib2 2026-05-09 18:02 217
20260509T12Z_MSC_CAPS_DownwardShortwaveRadiationFlux-Accum_NTAtm_RLatLon0.03_PT000H.grib2 2026-05-09 18:02 217
20260509T12Z_MSC_CAPS_DownwardShortwaveRadiationFlux-Accum_Sfc_RLatLon0.03_PT000H.grib2 2026-05-09 18:02 217
20260509T12Z_MSC_CAPS_GeopotentialHeight_IsbL-0050_RLatLon0.03_PT000H.grib2 2026-05-09 18:02 695K
20260509T12Z_MSC_CAPS_GeopotentialHeight_IsbL-0100_RLatLon0.03_PT000H.grib2 2026-05-09 18:02 868K
20260509T12Z_MSC_CAPS_GeopotentialHeight_IsbL-0150_RLatLon0.03_PT000H.grib2 2026-05-09 18:02 624K
20260509T12Z_MSC_CAPS_GeopotentialHeight_IsbL-0175_RLatLon0.03_PT000H.grib2 2026-05-09 18:02 737K
20260509T12Z_MSC_CAPS_GeopotentialHeight_IsbL-0200_RLatLon0.03_PT000H.grib2 2026-05-09 18:02 748K
20260509T12Z_MSC_CAPS_GeopotentialHeight_IsbL-0225_RLatLon0.03_PT000H.grib2 2026-05-09 18:02 764K
20260509T12Z_MSC_CAPS_GeopotentialHeight_IsbL-0250_RLatLon0.03_PT000H.grib2 2026-05-09 18:02 779K
20260509T12Z_MSC_CAPS_GeopotentialHeight_IsbL-0275_RLatLon0.03_PT000H.grib2 2026-05-09 18:02 788K
20260509T12Z_MSC_CAPS_GeopotentialHeight_IsbL-0300_RLatLon0.03_PT000H.grib2 2026-05-09 18:02 792K
20260509T12Z_MSC_CAPS_GeopotentialHeight_IsbL-0350_RLatLon0.03_PT000H.grib2 2026-05-09 18:02 793K
20260509T12Z_MSC_CAPS_GeopotentialHeight_IsbL-0400_RLatLon0.03_PT000H.grib2 2026-05-09 18:02 789K
20260509T12Z_MSC_CAPS_GeopotentialHeight_IsbL-0450_RLatLon0.03_PT000H.grib2 2026-05-09 18:02 783K
20260509T12Z_MSC_CAPS_GeopotentialHeight_IsbL-0500_RLatLon0.03_PT000H.grib2 2026-05-09 18:02 775K
20260509T12Z_MSC_CAPS_GeopotentialHeight_IsbL-0550_RLatLon0.03_PT000H.grib2 2026-05-09 18:02 769K
20260509T12Z_MSC_CAPS_GeopotentialHeight_IsbL-0600_RLatLon0.03_PT000H.grib2 2026-05-09 18:02 765K
20260509T12Z_MSC_CAPS_GeopotentialHeight_IsbL-0650_RLatLon0.03_PT000H.grib2 2026-05-09 18:02 651K
20260509T12Z_MSC_CAPS_GeopotentialHeight_IsbL-0700_RLatLon0.03_PT000H.grib2 2026-05-09 18:02 648K
20260509T12Z_MSC_CAPS_GeopotentialHeight_IsbL-0750_RLatLon0.03_PT000H.grib2 2026-05-09 18:02 647K
20260509T12Z_MSC_CAPS_GeopotentialHeight_IsbL-0800_RLatLon0.03_PT000H.grib2 2026-05-09 18:02 830K
20260509T12Z_MSC_CAPS_GeopotentialHeight_IsbL-0850_RLatLon0.03_PT000H.grib2 2026-05-09 18:02 833K
20260509T12Z_MSC_CAPS_GeopotentialHeight_IsbL-0875_RLatLon0.03_PT000H.grib2 2026-05-09 18:02 819K
20260509T12Z_MSC_CAPS_GeopotentialHeight_IsbL-0900_RLatLon0.03_PT000H.grib2 2026-05-09 18:02 838K
20260509T12Z_MSC_CAPS_GeopotentialHeight_IsbL-0925_RLatLon0.03_PT000H.grib2 2026-05-09 18:02 822K
20260509T12Z_MSC_CAPS_GeopotentialHeight_IsbL-0950_RLatLon0.03_PT000H.grib2 2026-05-09 18:02 836K
20260509T12Z_MSC_CAPS_GeopotentialHeight_IsbL-0970_RLatLon0.03_PT000H.grib2 2026-05-09 18:02 845K
20260509T12Z_MSC_CAPS_GeopotentialHeight_IsbL-0985_RLatLon0.03_PT000H.grib2 2026-05-09 18:02 854K
20260509T12Z_MSC_CAPS_GeopotentialHeight_IsbL-1000_RLatLon0.03_PT000H.grib2 2026-05-09 18:02 858K
20260509T12Z_MSC_CAPS_GeopotentialHeight_IsbL-1015_RLatLon0.03_PT000H.grib2 2026-05-09 18:02 864K
20260509T12Z_MSC_CAPS_GeopotentialHeight_Sfc_RLatLon0.03_PT000H.grib2 2026-05-09 18:02 887K
20260509T12Z_MSC_CAPS_LandWaterProportion_Sfc_RLatLon0.03_PT000H.grib2 2026-05-09 18:02 2.0M
20260509T12Z_MSC_CAPS_LatentHeatNetFlux_Sfc_RLatLon0.03_PT000H.grib2 2026-05-09 18:02 1.5M
20260509T12Z_MSC_CAPS_LiftedIndex-MU-VT_IsbL-0500_RLatLon0.03_PT000H.grib2 2026-05-09 18:02 3.2M
20260509T12Z_MSC_CAPS_NetLongwaveRadiationFlux-Accum_Sfc_RLatLon0.03_PT000H.grib2 2026-05-09 18:02 217
20260509T12Z_MSC_CAPS_NetShortwaveRadiationFlux-Accum_Sfc_RLatLon0.03_PT000H.grib2 2026-05-09 18:02 217
20260509T12Z_MSC_CAPS_PlanetaryBoundaryLayerHeight_Sfc_RLatLon0.03_PT000H.grib2 2026-05-09 18:02 2.5M
20260509T12Z_MSC_CAPS_Pressure_MSL_RLatLon0.03_PT000H.grib2 2026-05-09 18:02 738K
20260509T12Z_MSC_CAPS_Pressure_Sfc_RLatLon0.03_PT000H.grib2 2026-05-09 18:02 922K
20260509T12Z_MSC_CAPS_RadiativeTemp_Sfc_RLatLon0.03_PT000H.grib2 2026-05-09 18:02 2.1M
20260509T12Z_MSC_CAPS_RelativeHumidity_AGL-120m_RLatLon0.03_PT000H.grib2 2026-05-09 18:02 2.2M
20260509T12Z_MSC_CAPS_RelativeHumidity_AGL-2m_RLatLon0.03_PT000H.grib2 2026-05-09 18:02 1.9M
20260509T12Z_MSC_CAPS_RelativeHumidity_AGL-40m_RLatLon0.03_PT000H.grib2 2026-05-09 18:02 2.3M
20260509T12Z_MSC_CAPS_RelativeHumidity_AGL-80m_RLatLon0.03_PT000H.grib2 2026-05-09 18:02 2.1M
20260509T12Z_MSC_CAPS_RelativeHumidity_IsbL-0050_RLatLon0.03_PT000H.grib2 2026-05-09 18:02 926K
20260509T12Z_MSC_CAPS_RelativeHumidity_IsbL-0100_RLatLon0.03_PT000H.grib2 2026-05-09 18:02 1.0M
20260509T12Z_MSC_CAPS_RelativeHumidity_IsbL-0150_RLatLon0.03_PT000H.grib2 2026-05-09 18:02 439K
20260509T12Z_MSC_CAPS_RelativeHumidity_IsbL-0175_RLatLon0.03_PT000H.grib2 2026-05-09 18:02 416K
20260509T12Z_MSC_CAPS_RelativeHumidity_IsbL-0200_RLatLon0.03_PT000H.grib2 2026-05-09 18:02 575K
20260509T12Z_MSC_CAPS_RelativeHumidity_IsbL-0225_RLatLon0.03_PT000H.grib2 2026-05-09 18:02 801K
20260509T12Z_MSC_CAPS_RelativeHumidity_IsbL-0250_RLatLon0.03_PT000H.grib2 2026-05-09 18:02 1.0M
20260509T12Z_MSC_CAPS_RelativeHumidity_IsbL-0275_RLatLon0.03_PT000H.grib2 2026-05-09 18:02 1.2M
20260509T12Z_MSC_CAPS_RelativeHumidity_IsbL-0300_RLatLon0.03_PT000H.grib2 2026-05-09 18:02 1.5M
20260509T12Z_MSC_CAPS_RelativeHumidity_IsbL-0350_RLatLon0.03_PT000H.grib2 2026-05-09 18:02 1.7M
20260509T12Z_MSC_CAPS_RelativeHumidity_IsbL-0400_RLatLon0.03_PT000H.grib2 2026-05-09 18:02 1.8M
20260509T12Z_MSC_CAPS_RelativeHumidity_IsbL-0450_RLatLon0.03_PT000H.grib2 2026-05-09 18:02 1.6M
20260509T12Z_MSC_CAPS_RelativeHumidity_IsbL-0500_RLatLon0.03_PT000H.grib2 2026-05-09 18:02 1.7M
20260509T12Z_MSC_CAPS_RelativeHumidity_IsbL-0550_RLatLon0.03_PT000H.grib2 2026-05-09 18:02 1.6M
20260509T12Z_MSC_CAPS_RelativeHumidity_IsbL-0600_RLatLon0.03_PT000H.grib2 2026-05-09 18:02 1.8M
20260509T12Z_MSC_CAPS_RelativeHumidity_IsbL-0650_RLatLon0.03_PT000H.grib2 2026-05-09 18:02 1.8M
20260509T12Z_MSC_CAPS_RelativeHumidity_IsbL-0700_RLatLon0.03_PT000H.grib2 2026-05-09 18:02 1.8M
20260509T12Z_MSC_CAPS_RelativeHumidity_IsbL-0750_RLatLon0.03_PT000H.grib2 2026-05-09 18:02 1.8M
20260509T12Z_MSC_CAPS_RelativeHumidity_IsbL-0800_RLatLon0.03_PT000H.grib2 2026-05-09 18:02 2.0M
20260509T12Z_MSC_CAPS_RelativeHumidity_IsbL-0850_RLatLon0.03_PT000H.grib2 2026-05-09 18:02 2.1M
20260509T12Z_MSC_CAPS_RelativeHumidity_IsbL-0875_RLatLon0.03_PT000H.grib2 2026-05-09 18:02 2.0M
20260509T12Z_MSC_CAPS_RelativeHumidity_IsbL-0900_RLatLon0.03_PT000H.grib2 2026-05-09 18:02 2.1M
20260509T12Z_MSC_CAPS_RelativeHumidity_IsbL-0925_RLatLon0.03_PT000H.grib2 2026-05-09 18:02 2.1M
20260509T12Z_MSC_CAPS_RelativeHumidity_IsbL-0950_RLatLon0.03_PT000H.grib2 2026-05-09 18:02 2.1M
20260509T12Z_MSC_CAPS_RelativeHumidity_IsbL-0970_RLatLon0.03_PT000H.grib2 2026-05-09 18:02 2.0M
20260509T12Z_MSC_CAPS_RelativeHumidity_IsbL-0985_RLatLon0.03_PT000H.grib2 2026-05-09 18:02 1.9M
20260509T12Z_MSC_CAPS_RelativeHumidity_IsbL-1000_RLatLon0.03_PT000H.grib2 2026-05-09 18:02 1.9M
20260509T12Z_MSC_CAPS_RelativeHumidity_IsbL-1015_RLatLon0.03_PT000H.grib2 2026-05-09 18:02 1.9M
20260509T12Z_MSC_CAPS_Runoff-Accum_Sfc_RLatLon0.03_PT000H.grib2 2026-05-09 18:02 193
20260509T12Z_MSC_CAPS_SeaIceFraction_Sfc_RLatLon0.03_PT000H.grib2 2026-05-09 18:02 2.3M
20260509T12Z_MSC_CAPS_SeaWaterTemp_Sfc_RLatLon0.03_PT000H.grib2 2026-05-09 18:02 2.0M
20260509T12Z_MSC_CAPS_SensibleHeatNetFlux_Sfc_RLatLon0.03_PT000H.grib2 2026-05-09 18:02 1.7M
20260509T12Z_MSC_CAPS_ShowalterIndex_IsbL-0500_RLatLon0.03_PT000H.grib2 2026-05-09 18:02 4.2M
20260509T12Z_MSC_CAPS_SnowDensity_Sfc_RLatLon0.03_PT000H.grib2 2026-05-09 18:02 1.0M
20260509T12Z_MSC_CAPS_SnowDepthWaterEquivalent_Sfc_RLatLon0.03_PT000H.grib2 2026-05-09 18:02 627K
20260509T12Z_MSC_CAPS_SnowDepth_Sfc_RLatLon0.03_PT000H.grib2 2026-05-09 18:02 1.1M
20260509T12Z_MSC_CAPS_SoilTemp_DBS-0to10cm_RLatLon0.03_PT000H.grib2 2026-05-09 18:02 1.0M
20260509T12Z_MSC_CAPS_SoilTemp_Sfc_RLatLon0.03_PT000H.grib2 2026-05-09 18:02 1.2M
20260509T12Z_MSC_CAPS_SoilVolumetricIceContent_Sfc_RLatLon0.03_PT000H.grib2 2026-05-09 18:02 1.2M
20260509T12Z_MSC_CAPS_SoilVolumetricWaterContent_DBS-0to10cm_RLatLon0.03_PT000H.grib2 2026-05-09 18:02 1.3M
20260509T12Z_MSC_CAPS_SoilVolumetricWaterContent_DBS-0to1cm_RLatLon0.03_PT000H.grib2 2026-05-09 18:02 1.6M
20260509T12Z_MSC_CAPS_SpecificHumidity_AGL-120m_RLatLon0.03_PT000H.grib2 2026-05-09 18:02 1.3M
20260509T12Z_MSC_CAPS_SpecificHumidity_AGL-2m_RLatLon0.03_PT000H.grib2 2026-05-09 18:02 1.1M
20260509T12Z_MSC_CAPS_SpecificHumidity_AGL-40m_RLatLon0.03_PT000H.grib2 2026-05-09 18:02 1.4M
20260509T12Z_MSC_CAPS_SpecificHumidity_AGL-80m_RLatLon0.03_PT000H.grib2 2026-05-09 18:02 1.3M
20260509T12Z_MSC_CAPS_SpecificHumidity_IsbL-0050_RLatLon0.03_PT000H.grib2 2026-05-09 18:02 837K
20260509T12Z_MSC_CAPS_SpecificHumidity_IsbL-0100_RLatLon0.03_PT000H.grib2 2026-05-09 18:02 1.0M
20260509T12Z_MSC_CAPS_SpecificHumidity_IsbL-0150_RLatLon0.03_PT000H.grib2 2026-05-09 18:02 706K
20260509T12Z_MSC_CAPS_SpecificHumidity_IsbL-0175_RLatLon0.03_PT000H.grib2 2026-05-09 18:02 902K
20260509T12Z_MSC_CAPS_SpecificHumidity_IsbL-0200_RLatLon0.03_PT000H.grib2 2026-05-09 18:02 780K
20260509T12Z_MSC_CAPS_SpecificHumidity_IsbL-0225_RLatLon0.03_PT000H.grib2 2026-05-09 18:02 759K
20260509T12Z_MSC_CAPS_SpecificHumidity_IsbL-0250_RLatLon0.03_PT000H.grib2 2026-05-09 18:02 967K
20260509T12Z_MSC_CAPS_SpecificHumidity_IsbL-0275_RLatLon0.03_PT000H.grib2 2026-05-09 18:02 962K
20260509T12Z_MSC_CAPS_SpecificHumidity_IsbL-0300_RLatLon0.03_PT000H.grib2 2026-05-09 18:02 929K
20260509T12Z_MSC_CAPS_SpecificHumidity_IsbL-0350_RLatLon0.03_PT000H.grib2 2026-05-09 18:02 816K
20260509T12Z_MSC_CAPS_SpecificHumidity_IsbL-0400_RLatLon0.03_PT000H.grib2 2026-05-09 18:02 814K
20260509T12Z_MSC_CAPS_SpecificHumidity_IsbL-0450_RLatLon0.03_PT000H.grib2 2026-05-09 18:02 910K
20260509T12Z_MSC_CAPS_SpecificHumidity_IsbL-0500_RLatLon0.03_PT000H.grib2 2026-05-09 18:02 850K
20260509T12Z_MSC_CAPS_SpecificHumidity_IsbL-0550_RLatLon0.03_PT000H.grib2 2026-05-09 18:02 918K
20260509T12Z_MSC_CAPS_SpecificHumidity_IsbL-0600_RLatLon0.03_PT000H.grib2 2026-05-09 18:02 1.1M
20260509T12Z_MSC_CAPS_SpecificHumidity_IsbL-0650_RLatLon0.03_PT000H.grib2 2026-05-09 18:02 1.1M
20260509T12Z_MSC_CAPS_SpecificHumidity_IsbL-0700_RLatLon0.03_PT000H.grib2 2026-05-09 18:02 940K
20260509T12Z_MSC_CAPS_SpecificHumidity_IsbL-0750_RLatLon0.03_PT000H.grib2 2026-05-09 18:02 1.0M
20260509T12Z_MSC_CAPS_SpecificHumidity_IsbL-0800_RLatLon0.03_PT000H.grib2 2026-05-09 18:02 1.2M
20260509T12Z_MSC_CAPS_SpecificHumidity_IsbL-0850_RLatLon0.03_PT000H.grib2 2026-05-09 18:02 1.3M
20260509T12Z_MSC_CAPS_SpecificHumidity_IsbL-0875_RLatLon0.03_PT000H.grib2 2026-05-09 18:02 1.3M
20260509T12Z_MSC_CAPS_SpecificHumidity_IsbL-0900_RLatLon0.03_PT000H.grib2 2026-05-09 18:02 1.3M
20260509T12Z_MSC_CAPS_SpecificHumidity_IsbL-0925_RLatLon0.03_PT000H.grib2 2026-05-09 18:02 1.3M
20260509T12Z_MSC_CAPS_SpecificHumidity_IsbL-0950_RLatLon0.03_PT000H.grib2 2026-05-09 18:02 1.3M
20260509T12Z_MSC_CAPS_SpecificHumidity_IsbL-0970_RLatLon0.03_PT000H.grib2 2026-05-09 18:02 1.2M
20260509T12Z_MSC_CAPS_SpecificHumidity_IsbL-0985_RLatLon0.03_PT000H.grib2 2026-05-09 18:02 1.2M
20260509T12Z_MSC_CAPS_SpecificHumidity_IsbL-1000_RLatLon0.03_PT000H.grib2 2026-05-09 18:02 1.2M
20260509T12Z_MSC_CAPS_SpecificHumidity_IsbL-1015_RLatLon0.03_PT000H.grib2 2026-05-09 18:02 1.1M
20260509T12Z_MSC_CAPS_SpecificHumidity_Sfc_RLatLon0.03_PT000H.grib2 2026-05-09 18:02 2.0M
20260509T12Z_MSC_CAPS_StormRelativeHelicity_Sfc_RLatLon0.03_PT000H.grib2 2026-05-09 18:02 2.6M
20260509T12Z_MSC_CAPS_Thickness_IsbL-1000to0500_RLatLon0.03_PT000H.grib2 2026-05-09 18:02 416K
20260509T12Z_MSC_CAPS_TotalCloudCover_Sfc_RLatLon0.03_PT000H.grib2 2026-05-09 18:02 2.6M
20260509T12Z_MSC_CAPS_UpwardLongwaveRadiationFlux_NTAtm_RLatLon0.03_PT000H.grib2 2026-05-09 18:02 2.5M
20260509T12Z_MSC_CAPS_UpwardShortwaveRadiationFlux_NTAtm_RLatLon0.03_PT000H.grib2 2026-05-09 18:02 1.6M
20260509T12Z_MSC_CAPS_VerticalVelocity_IsbL-0250_RLatLon0.03_PT000H.grib2 2026-05-09 18:02 945K
20260509T12Z_MSC_CAPS_VerticalVelocity_IsbL-0500_RLatLon0.03_PT000H.grib2 2026-05-09 18:02 1.0M
20260509T12Z_MSC_CAPS_VerticalVelocity_IsbL-0700_RLatLon0.03_PT000H.grib2 2026-05-09 18:02 1.0M
20260509T12Z_MSC_CAPS_VerticalVelocity_IsbL-0850_RLatLon0.03_PT000H.grib2 2026-05-09 18:02 1.0M
20260509T12Z_MSC_CAPS_VerticalVelocity_IsbL-1000_RLatLon0.03_PT000H.grib2 2026-05-09 18:02 1.0M
20260509T12Z_MSC_CAPS_WindDir_AGL-10m_RLatLon0.03_PT000H.grib2 2026-05-09 18:02 1.7M
20260509T12Z_MSC_CAPS_WindDir_AGL-120m_RLatLon0.03_PT000H.grib2 2026-05-09 18:02 1.0M
20260509T12Z_MSC_CAPS_WindDir_AGL-40m_RLatLon0.03_PT000H.grib2 2026-05-09 18:02 1.1M
20260509T12Z_MSC_CAPS_WindDir_AGL-80m_RLatLon0.03_PT000H.grib2 2026-05-09 18:02 1.1M
20260509T12Z_MSC_CAPS_WindDir_IsbL-0050_RLatLon0.03_PT000H.grib2 2026-05-09 18:02 1.0M
20260509T12Z_MSC_CAPS_WindDir_IsbL-0100_RLatLon0.03_PT000H.grib2 2026-05-09 18:02 1.0M
20260509T12Z_MSC_CAPS_WindDir_IsbL-0150_RLatLon0.03_PT000H.grib2 2026-05-09 18:02 1.0M
20260509T12Z_MSC_CAPS_WindDir_IsbL-0175_RLatLon0.03_PT000H.grib2 2026-05-09 18:02 1.1M
20260509T12Z_MSC_CAPS_WindDir_IsbL-0200_RLatLon0.03_PT000H.grib2 2026-05-09 18:02 1.2M
20260509T12Z_MSC_CAPS_WindDir_IsbL-0225_RLatLon0.03_PT000H.grib2 2026-05-09 18:02 1.1M
20260509T12Z_MSC_CAPS_WindDir_IsbL-0250_RLatLon0.03_PT000H.grib2 2026-05-09 18:02 1.1M
20260509T12Z_MSC_CAPS_WindDir_IsbL-0275_RLatLon0.03_PT000H.grib2 2026-05-09 18:02 1.1M
20260509T12Z_MSC_CAPS_WindDir_IsbL-0300_RLatLon0.03_PT000H.grib2 2026-05-09 18:02 1.0M
20260509T12Z_MSC_CAPS_WindDir_IsbL-0350_RLatLon0.03_PT000H.grib2 2026-05-09 18:02 1.1M
20260509T12Z_MSC_CAPS_WindDir_IsbL-0400_RLatLon0.03_PT000H.grib2 2026-05-09 18:02 1.1M
20260509T12Z_MSC_CAPS_WindDir_IsbL-0450_RLatLon0.03_PT000H.grib2 2026-05-09 18:02 1.1M
20260509T12Z_MSC_CAPS_WindDir_IsbL-0500_RLatLon0.03_PT000H.grib2 2026-05-09 18:02 1.2M
20260509T12Z_MSC_CAPS_WindDir_IsbL-0550_RLatLon0.03_PT000H.grib2 2026-05-09 18:02 1.1M
20260509T12Z_MSC_CAPS_WindDir_IsbL-0600_RLatLon0.03_PT000H.grib2 2026-05-09 18:02 1.1M
20260509T12Z_MSC_CAPS_WindDir_IsbL-0650_RLatLon0.03_PT000H.grib2 2026-05-09 18:02 1.1M
20260509T12Z_MSC_CAPS_WindDir_IsbL-0700_RLatLon0.03_PT000H.grib2 2026-05-09 18:02 1.2M
20260509T12Z_MSC_CAPS_WindDir_IsbL-0750_RLatLon0.03_PT000H.grib2 2026-05-09 18:02 1.3M
20260509T12Z_MSC_CAPS_WindDir_IsbL-0800_RLatLon0.03_PT000H.grib2 2026-05-09 18:02 1.3M
20260509T12Z_MSC_CAPS_WindDir_IsbL-0850_RLatLon0.03_PT000H.grib2 2026-05-09 18:02 1.5M
20260509T12Z_MSC_CAPS_WindDir_IsbL-0875_RLatLon0.03_PT000H.grib2 2026-05-09 18:02 1.5M
20260509T12Z_MSC_CAPS_WindDir_IsbL-0900_RLatLon0.03_PT000H.grib2 2026-05-09 18:02 1.5M
20260509T12Z_MSC_CAPS_WindDir_IsbL-0925_RLatLon0.03_PT000H.grib2 2026-05-09 18:02 1.6M
20260509T12Z_MSC_CAPS_WindDir_IsbL-0950_RLatLon0.03_PT000H.grib2 2026-05-09 18:02 1.6M
20260509T12Z_MSC_CAPS_WindDir_IsbL-0970_RLatLon0.03_PT000H.grib2 2026-05-09 18:02 1.7M
20260509T12Z_MSC_CAPS_WindDir_IsbL-0985_RLatLon0.03_PT000H.grib2 2026-05-09 18:02 1.7M
20260509T12Z_MSC_CAPS_WindDir_IsbL-1000_RLatLon0.03_PT000H.grib2 2026-05-09 18:02 1.7M
20260509T12Z_MSC_CAPS_WindDir_IsbL-1015_RLatLon0.03_PT000H.grib2 2026-05-09 18:02 1.7M
20260509T12Z_MSC_CAPS_WindGust-Max_AGL-10m_RLatLon0.03_PT000H.grib2 2026-05-09 18:02 1.3M
20260509T12Z_MSC_CAPS_WindGust-Min_AGL-10m_RLatLon0.03_PT000H.grib2 2026-05-09 18:02 1.6M
20260509T12Z_MSC_CAPS_WindGust_AGL-10m_RLatLon0.03_PT000H.grib2 2026-05-09 18:02 1.9M
20260509T12Z_MSC_CAPS_WindSpeed_AGL-10m_RLatLon0.03_PT000H.grib2 2026-05-09 18:02 1.7M
20260509T12Z_MSC_CAPS_WindSpeed_AGL-120m_RLatLon0.03_PT000H.grib2 2026-05-09 18:02 1.0M
20260509T12Z_MSC_CAPS_WindSpeed_AGL-40m_RLatLon0.03_PT000H.grib2 2026-05-09 18:02 1.4M
20260509T12Z_MSC_CAPS_WindSpeed_AGL-80m_RLatLon0.03_PT000H.grib2 2026-05-09 18:02 1.3M
20260509T12Z_MSC_CAPS_WindSpeed_IsbL-0050_RLatLon0.03_PT000H.grib2 2026-05-09 18:02 1.1M
20260509T12Z_MSC_CAPS_WindSpeed_IsbL-0100_RLatLon0.03_PT000H.grib2 2026-05-09 18:02 817K
20260509T12Z_MSC_CAPS_WindSpeed_IsbL-0150_RLatLon0.03_PT000H.grib2 2026-05-09 18:02 1.0M
20260509T12Z_MSC_CAPS_WindSpeed_IsbL-0175_RLatLon0.03_PT000H.grib2 2026-05-09 18:02 1.1M
20260509T12Z_MSC_CAPS_WindSpeed_IsbL-0200_RLatLon0.03_PT000H.grib2 2026-05-09 18:02 887K
20260509T12Z_MSC_CAPS_WindSpeed_IsbL-0225_RLatLon0.03_PT000H.grib2 2026-05-09 18:02 905K
20260509T12Z_MSC_CAPS_WindSpeed_IsbL-0250_RLatLon0.03_PT000H.grib2 2026-05-09 18:02 1.0M
20260509T12Z_MSC_CAPS_WindSpeed_IsbL-0275_RLatLon0.03_PT000H.grib2 2026-05-09 18:02 1.0M
20260509T12Z_MSC_CAPS_WindSpeed_IsbL-0300_RLatLon0.03_PT000H.grib2 2026-05-09 18:02 940K
20260509T12Z_MSC_CAPS_WindSpeed_IsbL-0350_RLatLon0.03_PT000H.grib2 2026-05-09 18:02 951K
20260509T12Z_MSC_CAPS_WindSpeed_IsbL-0400_RLatLon0.03_PT000H.grib2 2026-05-09 18:02 953K
20260509T12Z_MSC_CAPS_WindSpeed_IsbL-0450_RLatLon0.03_PT000H.grib2 2026-05-09 18:02 1.3M
20260509T12Z_MSC_CAPS_WindSpeed_IsbL-0500_RLatLon0.03_PT000H.grib2 2026-05-09 18:02 1.3M
20260509T12Z_MSC_CAPS_WindSpeed_IsbL-0550_RLatLon0.03_PT000H.grib2 2026-05-09 18:02 1.2M
20260509T12Z_MSC_CAPS_WindSpeed_IsbL-0600_RLatLon0.03_PT000H.grib2 2026-05-09 18:02 1.2M
20260509T12Z_MSC_CAPS_WindSpeed_IsbL-0650_RLatLon0.03_PT000H.grib2 2026-05-09 18:02 1.2M
20260509T12Z_MSC_CAPS_WindSpeed_IsbL-0700_RLatLon0.03_PT000H.grib2 2026-05-09 18:02 1.3M
20260509T12Z_MSC_CAPS_WindSpeed_IsbL-0750_RLatLon0.03_PT000H.grib2 2026-05-09 18:02 1.3M
20260509T12Z_MSC_CAPS_WindSpeed_IsbL-0800_RLatLon0.03_PT000H.grib2 2026-05-09 18:02 1.4M
20260509T12Z_MSC_CAPS_WindSpeed_IsbL-0850_RLatLon0.03_PT000H.grib2 2026-05-09 18:02 1.4M
20260509T12Z_MSC_CAPS_WindSpeed_IsbL-0875_RLatLon0.03_PT000H.grib2 2026-05-09 18:02 1.4M
20260509T12Z_MSC_CAPS_WindSpeed_IsbL-0900_RLatLon0.03_PT000H.grib2 2026-05-09 18:02 1.5M
20260509T12Z_MSC_CAPS_WindSpeed_IsbL-0925_RLatLon0.03_PT000H.grib2 2026-05-09 18:02 1.5M
20260509T12Z_MSC_CAPS_WindSpeed_IsbL-0950_RLatLon0.03_PT000H.grib2 2026-05-09 18:02 1.5M
20260509T12Z_MSC_CAPS_WindSpeed_IsbL-0970_RLatLon0.03_PT000H.grib2 2026-05-09 18:02 1.5M
20260509T12Z_MSC_CAPS_WindSpeed_IsbL-0985_RLatLon0.03_PT000H.grib2 2026-05-09 18:02 1.4M
20260509T12Z_MSC_CAPS_WindSpeed_IsbL-1000_RLatLon0.03_PT000H.grib2 2026-05-09 18:02 1.4M
20260509T12Z_MSC_CAPS_WindSpeed_IsbL-1015_RLatLon0.03_PT000H.grib2 2026-05-09 18:02 1.7M
20260509T12Z_MSC_CAPS_WindU_AGL-10m_RLatLon0.03_PT000H.grib2 2026-05-09 18:02 1.1M
20260509T12Z_MSC_CAPS_WindU_AGL-120m_RLatLon0.03_PT000H.grib2 2026-05-09 18:02 1.0M
20260509T12Z_MSC_CAPS_WindU_AGL-40m_RLatLon0.03_PT000H.grib2 2026-05-09 18:02 1.0M
20260509T12Z_MSC_CAPS_WindU_AGL-80m_RLatLon0.03_PT000H.grib2 2026-05-09 18:02 1.0M
20260509T12Z_MSC_CAPS_WindU_IsbL-0050_RLatLon0.03_PT000H.grib2 2026-05-09 18:02 735K
20260509T12Z_MSC_CAPS_WindU_IsbL-0100_RLatLon0.03_PT000H.grib2 2026-05-09 18:02 733K
20260509T12Z_MSC_CAPS_WindU_IsbL-0150_RLatLon0.03_PT000H.grib2 2026-05-09 18:02 855K
20260509T12Z_MSC_CAPS_WindU_IsbL-0175_RLatLon0.03_PT000H.grib2 2026-05-09 18:02 805K
20260509T12Z_MSC_CAPS_WindU_IsbL-0200_RLatLon0.03_PT000H.grib2 2026-05-09 18:02 826K
20260509T12Z_MSC_CAPS_WindU_IsbL-0225_RLatLon0.03_PT000H.grib2 2026-05-09 18:02 656K
20260509T12Z_MSC_CAPS_WindU_IsbL-0250_RLatLon0.03_PT000H.grib2 2026-05-09 18:02 678K
20260509T12Z_MSC_CAPS_WindU_IsbL-0275_RLatLon0.03_PT000H.grib2 2026-05-09 18:02 685K
20260509T12Z_MSC_CAPS_WindU_IsbL-0300_RLatLon0.03_PT000H.grib2 2026-05-09 18:02 692K
20260509T12Z_MSC_CAPS_WindU_IsbL-0350_RLatLon0.03_PT000H.grib2 2026-05-09 18:02 896K
20260509T12Z_MSC_CAPS_WindU_IsbL-0400_RLatLon0.03_PT000H.grib2 2026-05-09 18:02 899K
20260509T12Z_MSC_CAPS_WindU_IsbL-0450_RLatLon0.03_PT000H.grib2 2026-05-09 18:02 899K
20260509T12Z_MSC_CAPS_WindU_IsbL-0500_RLatLon0.03_PT000H.grib2 2026-05-09 18:02 902K
20260509T12Z_MSC_CAPS_WindU_IsbL-0550_RLatLon0.03_PT000H.grib2 2026-05-09 18:02 777K
20260509T12Z_MSC_CAPS_WindU_IsbL-0600_RLatLon0.03_PT000H.grib2 2026-05-09 18:02 788K
20260509T12Z_MSC_CAPS_WindU_IsbL-0650_RLatLon0.03_PT000H.grib2 2026-05-09 18:02 806K
20260509T12Z_MSC_CAPS_WindU_IsbL-0700_RLatLon0.03_PT000H.grib2 2026-05-09 18:02 834K
20260509T12Z_MSC_CAPS_WindU_IsbL-0750_RLatLon0.03_PT000H.grib2 2026-05-09 18:02 871K
20260509T12Z_MSC_CAPS_WindU_IsbL-0800_RLatLon0.03_PT000H.grib2 2026-05-09 18:02 911K
20260509T12Z_MSC_CAPS_WindU_IsbL-0850_RLatLon0.03_PT000H.grib2 2026-05-09 18:02 962K
20260509T12Z_MSC_CAPS_WindU_IsbL-0875_RLatLon0.03_PT000H.grib2 2026-05-09 18:02 1.0M
20260509T12Z_MSC_CAPS_WindU_IsbL-0900_RLatLon0.03_PT000H.grib2 2026-05-09 18:02 1.0M
20260509T12Z_MSC_CAPS_WindU_IsbL-0925_RLatLon0.03_PT000H.grib2 2026-05-09 18:02 1.0M
20260509T12Z_MSC_CAPS_WindU_IsbL-0950_RLatLon0.03_PT000H.grib2 2026-05-09 18:02 1.0M
20260509T12Z_MSC_CAPS_WindU_IsbL-0970_RLatLon0.03_PT000H.grib2 2026-05-09 18:02 1.2M
20260509T12Z_MSC_CAPS_WindU_IsbL-0985_RLatLon0.03_PT000H.grib2 2026-05-09 18:02 1.2M
20260509T12Z_MSC_CAPS_WindU_IsbL-1000_RLatLon0.03_PT000H.grib2 2026-05-09 18:02 1.3M
20260509T12Z_MSC_CAPS_WindU_IsbL-1015_RLatLon0.03_PT000H.grib2 2026-05-09 18:02 1.2M
20260509T12Z_MSC_CAPS_WindV_AGL-10m_RLatLon0.03_PT000H.grib2 2026-05-09 18:02 1.2M
20260509T12Z_MSC_CAPS_WindV_AGL-120m_RLatLon0.03_PT000H.grib2 2026-05-09 18:02 1.0M
20260509T12Z_MSC_CAPS_WindV_AGL-40m_RLatLon0.03_PT000H.grib2 2026-05-09 18:02 1.0M
20260509T12Z_MSC_CAPS_WindV_AGL-80m_RLatLon0.03_PT000H.grib2 2026-05-09 18:02 1.0M
20260509T12Z_MSC_CAPS_WindV_IsbL-0050_RLatLon0.03_PT000H.grib2 2026-05-09 18:02 738K
20260509T12Z_MSC_CAPS_WindV_IsbL-0100_RLatLon0.03_PT000H.grib2 2026-05-09 18:02 734K
20260509T12Z_MSC_CAPS_WindV_IsbL-0150_RLatLon0.03_PT000H.grib2 2026-05-09 18:02 854K
20260509T12Z_MSC_CAPS_WindV_IsbL-0175_RLatLon0.03_PT000H.grib2 2026-05-09 18:02 672K
20260509T12Z_MSC_CAPS_WindV_IsbL-0200_RLatLon0.03_PT000H.grib2 2026-05-09 18:02 823K
20260509T12Z_MSC_CAPS_WindV_IsbL-0225_RLatLon0.03_PT000H.grib2 2026-05-09 18:02 845K
20260509T12Z_MSC_CAPS_WindV_IsbL-0250_RLatLon0.03_PT000H.grib2 2026-05-09 18:02 867K
20260509T12Z_MSC_CAPS_WindV_IsbL-0275_RLatLon0.03_PT000H.grib2 2026-05-09 18:02 874K
20260509T12Z_MSC_CAPS_WindV_IsbL-0300_RLatLon0.03_PT000H.grib2 2026-05-09 18:02 882K
20260509T12Z_MSC_CAPS_WindV_IsbL-0350_RLatLon0.03_PT000H.grib2 2026-05-09 18:02 695K
20260509T12Z_MSC_CAPS_WindV_IsbL-0400_RLatLon0.03_PT000H.grib2 2026-05-09 18:02 893K
20260509T12Z_MSC_CAPS_WindV_IsbL-0450_RLatLon0.03_PT000H.grib2 2026-05-09 18:02 892K
20260509T12Z_MSC_CAPS_WindV_IsbL-0500_RLatLon0.03_PT000H.grib2 2026-05-09 18:02 895K
20260509T12Z_MSC_CAPS_WindV_IsbL-0550_RLatLon0.03_PT000H.grib2 2026-05-09 18:02 767K
20260509T12Z_MSC_CAPS_WindV_IsbL-0600_RLatLon0.03_PT000H.grib2 2026-05-09 18:02 780K
20260509T12Z_MSC_CAPS_WindV_IsbL-0650_RLatLon0.03_PT000H.grib2 2026-05-09 18:02 798K
20260509T12Z_MSC_CAPS_WindV_IsbL-0700_RLatLon0.03_PT000H.grib2 2026-05-09 18:02 830K
20260509T12Z_MSC_CAPS_WindV_IsbL-0750_RLatLon0.03_PT000H.grib2 2026-05-09 18:02 1.1M
20260509T12Z_MSC_CAPS_WindV_IsbL-0800_RLatLon0.03_PT000H.grib2 2026-05-09 18:02 1.1M
20260509T12Z_MSC_CAPS_WindV_IsbL-0850_RLatLon0.03_PT000H.grib2 2026-05-09 18:02 1.2M
20260509T12Z_MSC_CAPS_WindV_IsbL-0875_RLatLon0.03_PT000H.grib2 2026-05-09 18:02 1.2M
20260509T12Z_MSC_CAPS_WindV_IsbL-0900_RLatLon0.03_PT000H.grib2 2026-05-09 18:02 1.2M
20260509T12Z_MSC_CAPS_WindV_IsbL-0925_RLatLon0.03_PT000H.grib2 2026-05-09 18:02 1.2M
20260509T12Z_MSC_CAPS_WindV_IsbL-0950_RLatLon0.03_PT000H.grib2 2026-05-09 18:02 1.2M
20260509T12Z_MSC_CAPS_WindV_IsbL-0970_RLatLon0.03_PT000H.grib2 2026-05-09 18:02 1.2M
20260509T12Z_MSC_CAPS_WindV_IsbL-0985_RLatLon0.03_PT000H.grib2 2026-05-09 18:02 1.2M
20260509T12Z_MSC_CAPS_WindV_IsbL-1000_RLatLon0.03_PT000H.grib2 2026-05-09 18:02 1.2M
20260509T12Z_MSC_CAPS_WindV_IsbL-1015_RLatLon0.03_PT000H.grib2 2026-05-09 18:02 1.2M